Погода в Петровке

Россия / Оренбургская область     52°27′20″N   54°17′23″E
темп.,
°C
ветер,
м/с
пор.,
м/с
влажн.,
%
обл.,
%
осадки,
мм/ч
давл.,
гПа
погр.,
м
15 апреля, чт
чт1523:00+9вюв412770 0.0 1027211
02:00+9юв412730 0.0 1026196
05:00+8юв47760 0.0 1026111
08:00+8вюв39690 0.0 1025180
11:00+15юв58443 0.0 1024415
14:00+18ююв563146 0.0 1023941
17:00+20ююв562913 0.0 10211363
20:00+16вюв334418 0.0 102020
16 апреля, пт
пт1623:00+12вюв36631 0.0 102078
02:00+10вюв33654 0.0 102021
05:00+9в33650 0.0 102019
08:00+10в35634 0.0 1020107
11:00+16вюв45415 0.0 1019445
14:00+19в44325 0.0 10191364
17:00+20в44290 0.0 10181919
20:00+15св47442 0.0 101889
17 апреля, сб
сб1723:00+12в355557 0.0 101958
02:00+10св59755 0.0 1020156
05:00+8в378459 0.0 1020111
08:00+9в488251 0.0 1021212
11:00+14в56565 0.0 1021545
14:00+17всв55445 0.0 10201138
17:00+18всв44381 0.0 10201478
20:00+15св35520 0.0 102079
18 апреля, вс
вс1823:00+12св49680 0.0 1020163
02:00+9всв48840 0.0 1021194
05:00+7св49790 0.0 1021199
08:00+8св48631 0.0 1021242
11:00+12св55467 0.0 1020579
14:00+15св5537100 0.0 1020981
17:00+15св5532100 0.0 10191216
20:00+11св594353 0.0 1020301
19 апреля, пн
пн1923:00+9св5115611 0.0 1021406
02:00+6св7127271 0.0 1021427
05:00+4в81367100 0.0 1023539
08:00+3в9146184 0.0 1025675
11:00+5в101249100 0.0 1026965
14:00+6в91145100 0.0 10271105
17:00+6в81044100 0.0 10271297
20:00+5в81144100 0.0 10281148